SBIRS GEO-1 (USA 230)

Last updated on Jan. 22, 2020, 4:36 a.m. UTC

1 37481U 11019A   20021.54946931 -.00000011  00000-0  00000-0 0  9994
2 37481   2.2265 337.8729 0001803 323.4993  82.9982  1.00272048 31989
UTC
Height (km)
Latitude
Longitude
Inclination
Orbital Period
UTC large
Height (km)
Speed (km/s)
/
Latitude / Longitude
Inclination (degrees)
Orbital Period (minutes)
Azimuth
Elevation
Range (km)
Doppler Factor
iOS Compass Heading
iOS Angle

Next 30 passes for location: Hong Kong

Rise time Rise Azimuth (degrees) Set time Set Azimuth (degrees) Duration Max altitude (degrees)

No matching passes for this satellites